Location: L�tisburg
(47.3947°N, 9.0820°E)
Time: 02:16:51
(UTC+00:00)

Cosmos 1707 Rocket - Pass Details

Date: 23 June 2021
Orbit: 604 x 632 km, 82.5° (Epoch: 02 August)

Event Time Altitude Azimuth Distance (km) Brightness Sun altitude
Rises 02:34:08 0° 359° (N) 2,903 7.8 -7.5°
Reaches altitude 10° 02:36:36 10° 10° (N) 1,987 7.2 -7.2°
Maximum altitude 02:40:30 30° 72° (ENE) 1,107 5.7 -6.8°
Drops below altitude 10° 02:44:19 10° 134° (SE) 1,959 6.2 -6.3°
Sets 02:46:44 0° 146° (SE) 2,855 6.9 -6.0°
